Weather History for Sanford, FL

Change the Weather History Date:

Wednesday, August 8, 2012

  Actual Average Record
Temperature  
Mean Temperature 84 °F -  
Max Temperature 93 °F 92 °F 98 °F (1999)
Min Temperature 75 °F 72 °F 67 °F (1993)
Cooling Degree Days 19    
Growing Degree Days 34 (Base 50)    
Moisture  
Dew Point 73 °F    
Average Humidity 77    
Maximum Humidity 90    
Minimum Humidity 46    
Precipitation  
Precipitation 0.08 in - - ()
Sea Level Pressure  
Sea Level Pressure 30.03 in    
Wind  
Wind Speed 4 mph (South)    
Max Wind Speed 18 mph    
Max Gust Speed 31 mph    
Visibility 10 miles    
Events Rain    
Averages and records for this station are not official NWS values.
T = Trace of Precipitation, MM = Missing Value Source: NWS Daily Summary

Daily Weather History Graph

Daily Weather History Graph

Search for Another Location

Airport:

Trip Planner

Search our weather history database for the weather conditions in past years. The results will help you decide how hot, cold, wet, or windy it might be!

Date:

Astronomy

Aug. 08, 2012 Rise Set
Actual Time 6:50 AM EDT 8:10 PM EDT
Civil Twilight 6:25 AM EDT 8:35 PM EDT
Nautical Twilight 5:55 AM EDT 9:05 PM EDT
Astronomical Twilight 5:24 AM EDT 9:36 PM EDT
Moon No Moon Rise 12:55 PM EDT (8/8)
Length of Visible Light 14h 10m
Length of Day
13h 19m
Waning Gibbous, 61% of the Moon is Illuminated
Aug 8
Waning Gibbous
Aug 9
Last Quarter
Aug 17
New
Aug 24
First Quarter
Aug 31
Full

Hourly Weather History & Observations

Time (EDT) Temp. Heat Index Dew Point Humidity Pressure Visibility Wind Dir Wind Speed Gust Speed Precip Events Conditions
12:53 AM 77.0 °F - 72.0 °F 84% 30.03 in 10.0 mi Calm Calm - N/A   Clear
1:53 AM 77.0 °F - 73.0 °F 88% 30.03 in 10.0 mi Calm Calm - N/A   Clear
2:53 AM 78.1 °F - 73.9 °F 87% 30.01 in 10.0 mi South 4.6 mph - N/A   Clear
3:53 AM 77.0 °F - 73.9 °F 90% 30.00 in 10.0 mi Calm Calm - N/A   Partly Cloudy
4:53 AM 77.0 °F - 73.9 °F 90% 30.00 in 10.0 mi Calm Calm - N/A   Clear
5:53 AM 77.0 °F - 73.9 °F 90% 30.01 in 10.0 mi South 3.5 mph - N/A   Clear
6:53 AM 78.1 °F - 73.9 °F 87% 30.03 in 10.0 mi Calm Calm - N/A   Clear
7:53 AM 79.0 °F - 75.0 °F 88% 30.03 in 10.0 mi South 3.5 mph - N/A   Clear
8:53 AM 80.1 °F 85.4 °F 75.9 °F 87% 30.04 in 10.0 mi South 5.8 mph - N/A   Clear
9:53 AM 82.0 °F 89.4 °F 75.9 °F 82% 30.06 in 10.0 mi SSW 5.8 mph - N/A   Clear
10:53 AM 86.0 °F 95.1 °F 75.0 °F 70% 30.06 in 10.0 mi WSW 9.2 mph - N/A   Partly Cloudy
11:53 AM 89.1 °F 98.0 °F 73.9 °F 61% 30.05 in 10.0 mi South 8.1 mph - N/A   Clear
12:53 PM 91.0 °F 100.4 °F 73.9 °F 57% 30.04 in 10.0 mi SSW 9.2 mph - N/A   Partly Cloudy
1:53 PM 91.9 °F 100.7 °F 73.0 °F 54% 30.02 in 10.0 mi Variable 3.5 mph - N/A   Partly Cloudy
2:53 PM 93.9 °F 100.3 °F 70.0 °F 46% 30.00 in 10.0 mi SW 6.9 mph - N/A   Scattered Clouds
3:53 PM 91.9 °F 97.4 °F 70.0 °F 48% 29.98 in 10.0 mi South 3.5 mph - N/A   Mostly Cloudy
4:53 PM 91.9 °F 96.9 °F 69.1 °F 47% 29.97 in 10.0 mi SSW 5.8 mph - N/A   Scattered Clouds
5:43 PM 80.6 °F 83.9 °F 69.8 °F 70% 30.02 in 10.0 mi North 15.0 mph 31.1 mph N/A   Overcast
5:53 PM 79.0 °F - 71.1 °F 77% 30.02 in 10.0 mi ENE 18.4 mph 24.2 mph N/A   Overcast
6:00 PM 78.8 °F - 71.6 °F 78% 30.02 in 10.0 mi ENE 17.3 mph - N/A   Overcast
6:53 PM 75.9 °F - 71.1 °F 85% 30.08 in 9.0 mi SW 5.8 mph - 0.01 in Rain Light Rain
7:53 PM 75.9 °F - 72.0 °F 87% 30.05 in 10.0 mi ESE 6.9 mph - 0.04 in   Clear
8:53 PM 75.0 °F - 72.0 °F 90% 30.01 in 10.0 mi ENE 8.1 mph - 0.02 in Rain Light Rain
9:53 PM 75.0 °F - 71.1 °F 87% 30.02 in 10.0 mi Calm Calm - 0.01 in   Clear
10:53 PM 75.0 °F - 71.1 °F 87% 30.04 in 10.0 mi SW 5.8 mph - N/A   Clear
11:53 PM 75.0 °F - 71.1 °F 87% 30.04 in 10.0 mi South 3.5 mph - N/A   Scattered Clouds